星链-3795 (STARLINK-3795 )

导读

STARLINK-3795是美国太空探索技术公司星链星座的卫星,于2022年4月21日发射升空。星链项目旨在构建全球卫星互联网,为全球提供高速宽带服务,该卫星入轨后参与星座组网,推进星链系统覆盖范围拓展,服务地面通信、导航等多元需求,是美国低轨巨型星座部署的组成单元。

基本信息
目录编号:
52264
目录名称:
STARLINK-3795
国际标识:
2022-041D
轨道中心:
EARTH
卫星名称:
星链-3795
卫星全名:
星链-3795 (STARLINK-3795 )
卫星状态:
在轨 (已飞行1598 天)
发射日期:
2022-04-21 UTC
国别 :
美国 (US)
星等 :
--
轨道信息
数据来源 国际轨道数据 AOE轨道数据
星历时间 2026-09-04T23:27:26+0800
21小时前
查看轨道信息
2026-09-03T16:00:00+0800
2天前
查看轨道信息
半长轴 6840.906km 6840.824km
偏心率 0.0001376 0.0001235
轨道倾角 53.162° 53.160°
近地点辐角 90.919° 76.224°
升交点赤经 12.093° 18.224°
平近点角 269.197° 239.738°
近地点 461.827km 461.842km
远地点 463.711km 463.532km
周期 93.849分钟 93.847分钟
每日圈数 15.343782 15.344056
详细信息
固有亮度:
5
最大亮度:
2.5
卫星平台:
Starlink v1.5
覆盖范围:
全球
运营商:
太空探索技术公司
运营商所在国:
美国
制造商(研发单位):
太空探索技术公司
制造商所在国:
美国
使用方式:
暂无
卫星简介
星链(Starlink)计划是由太空探索技术公司(SpaceX)提出的一个巨型低轨卫星互联网星座项目,计划在2019年至2024年间在太空搭建由约1.2万颗卫星组成的“星链”网络,其中1584颗将部署在地球上空550千米处的近地轨道,并从2020年开始工作。该卫星仍在工作。
2D轨道图
3D轨道图
轨道高度分析图
轨道倾角分析图
轨道综合分析图
查看轨道综合分析图
交会数据列表
事件ID 空间交会对象 最接近时刻(TCA) 交会距离 交会风险概率(CRP) 交会风险指数(CRI) 操作
CDM_260907-163505-226406-536121
2026-09-07T
16:35:54+0000
0.646 km
远距离
4.96367E-5 中风险 0.69
CDM_260907-123105-226406-806521
2026-09-07T
12:31:21+0000
1.327 km
极远距离
6.362951E-6 低风险 0.51
CDM_260907-105705-226406-806521
2026-09-07T
10:57:33+0000
1.397 km
极远距离
5.361164E-6 低风险 0.5
CDM_260907-180905-226406-536121
2026-09-07T
18:09:42+0000
2.126 km
极远距离
1.204064E-6 低风险 0.37
CDM_260907-053905-226405-270021
2026-09-07T
05:39:52+0000
2.480 km
极远距离
9.632371E-7 极低风险 0.35
CDM_260907-163305-226405-228321
2026-09-07T
16:33:08+0000
2.695 km
极远距离
4.028336E-7 极低风险 0.27